Terminal Aerodrome Forecast
Issued by NWS

Home | Current Version | Previous Version | Text Only | Print | Product List | Glossary On
Versions: 1 2 3 4 5 6 7 8 9 10 11 12 13 14 15 16 17 18 19 20
000
FTUS43 KJKL 260500
TAFSME
TAF
KSME 260520Z 2606/2706 02003KT P6SM BKN150
     FM261000 VRB04KT P6SM SCT025 OVC050
     FM261100 VRB05KT P6SM SCT020 BKN035=

USA.gov is the U.S. government's official web portal to all federal, state and local government web resources and services.